TimeCDT,TemperatureF,Dew PointF,Humidity,Sea Level PressureIn,VisibilityMPH,Wind Direction,Wind SpeedMPH,Gust SpeedMPH,PrecipitationIn,Events,Conditions,WindDirDegrees,DateUTC
12:13 AM,28.4,24.8,86,29.99,10.0,Calm,Calm,-,N/A,,Clear,0,2013-04-14 05:13:00
12:33 AM,26.6,24.8,93,29.99,10.0,Calm,Calm,-,N/A,,Clear,0,2013-04-14 05:33:00
12:53 AM,24.8,21.2,86,30.00,10.0,Calm,Calm,-,N/A,,Clear,0,2013-04-14 05:53:00
1:13 AM,26.6,23.0,86,30.00,10.0,Calm,Calm,-,N/A,,Clear,0,2013-04-14 06:13:00
1:33 AM,24.8,21.2,86,30.00,10.0,Calm,Calm,-,N/A,,Clear,0,2013-04-14 06:33:00
1:54 AM,26.6,23.0,86,30.00,10.0,Calm,Calm,-,N/A,,Clear,0,2013-04-14 06:54:00
2:13 AM,26.6,23.0,86,29.99,10.0,Calm,Calm,-,N/A,,Clear,0,2013-04-14 07:13:00
2:33 AM,24.8,21.2,86,29.99,10.0,Calm,Calm,-,N/A,,Clear,0,2013-04-14 07:33:00
2:54 AM,24.8,21.2,86,29.98,10.0,Calm,Calm,-,N/A,,Clear,0,2013-04-14 07:54:00
3:13 AM,24.8,21.2,86,29.98,10.0,Calm,Calm,-,N/A,,Clear,0,2013-04-14 08:13:00
3:33 AM,23.0,19.4,86,29.97,10.0,Calm,Calm,-,N/A,,Clear,0,2013-04-14 08:33:00
3:54 AM,23.0,21.2,93,29.96,10.0,Calm,Calm,-,N/A,,Clear,0,2013-04-14 08:54:00
4:13 AM,23.0,21.2,93,29.97,10.0,Calm,Calm,-,N/A,,Clear,0,2013-04-14 09:13:00
4:33 AM,23.0,21.2,93,29.96,10.0,Calm,Calm,-,N/A,,Clear,0,2013-04-14 09:33:00
4:54 AM,21.2,17.6,86,29.95,10.0,Calm,Calm,-,N/A,,Clear,0,2013-04-14 09:54:00
5:13 AM,19.4,17.6,93,29.96,10.0,Calm,Calm,-,N/A,,Clear,0,2013-04-14 10:13:00
5:33 AM,19.4,17.6,93,29.97,10.0,South,3.5,-,N/A,,Clear,190,2013-04-14 10:33:00
5:54 AM,21.2,19.4,93,30.00,10.0,SSW,3.5,-,N/A,,Clear,210,2013-04-14 10:54:00
6:13 AM,19.4,17.6,93,29.99,10.0,Calm,Calm,-,N/A,,Clear,0,2013-04-14 11:13:00
6:33 AM,19.4,17.6,93,29.99,10.0,Calm,Calm,-,N/A,,Clear,0,2013-04-14 11:33:00
6:54 AM,21.2,17.6,86,30.00,10.0,Calm,Calm,-,N/A,,Clear,0,2013-04-14 11:54:00
7:13 AM,21.2,19.4,93,29.98,10.0,Calm,Calm,-,N/A,,Clear,0,2013-04-14 12:13:00
7:33 AM,23.0,19.4,86,29.98,10.0,Calm,Calm,-,N/A,,Clear,0,2013-04-14 12:33:00
7:54 AM,24.8,21.2,86,29.98,10.0,Calm,Calm,-,N/A,,Clear,0,2013-04-14 12:54:00
8:13 AM,24.8,21.2,86,29.98,10.0,Calm,Calm,-,N/A,,Clear,0,2013-04-14 13:13:00
8:33 AM,26.6,23.0,86,29.98,10.0,Calm,Calm,-,N/A,,Clear,0,2013-04-14 13:33:00
8:54 AM,28.4,24.8,86,29.97,10.0,Calm,Calm,-,N/A,,Clear,0,2013-04-14 13:54:00
9:13 AM,28.4,24.8,86,29.97,10.0,Calm,Calm,-,N/A,,Clear,0,2013-04-14 14:13:00
9:33 AM,30.2,26.6,86,29.96,10.0,ENE,5.8,-,N/A,,Clear,60,2013-04-14 14:33:00
9:54 AM,30.2,28.4,93,29.94,10.0,NE,8.1,-,N/A,,Clear,50,2013-04-14 14:54:00
10:13 AM,32.0,28.4,87,29.93,10.0,NE,12.7,-,N/A,,Clear,50,2013-04-14 15:13:00
10:33 AM,32.0,28.4,87,29.92,10.0,NE,12.7,-,N/A,,Clear,50,2013-04-14 15:33:00
10:54 AM,32.0,28.4,87,29.92,10.0,NE,13.8,-,N/A,,Clear,50,2013-04-14 15:54:00
11:13 AM,33.8,28.4,81,29.91,10.0,NE,16.1,-,N/A,,Clear,50,2013-04-14 16:13:00
11:34 AM,33.8,30.2,87,29.91,10.0,NE,15.0,-,N/A,,Clear,50,2013-04-14 16:34:00
11:53 AM,33.8,30.2,87,29.90,10.0,NE,15.0,-,N/A,,Clear,50,2013-04-14 16:53:00
12:13 PM,33.8,30.2,87,29.88,10.0,NE,19.6,23.0,N/A,,Clear,50,2013-04-14 17:13:00
12:34 PM,33.8,30.2,87,29.88,10.0,NE,19.6,24.2,N/A,,Clear,50,2013-04-14 17:34:00
12:53 PM,33.8,30.2,87,29.88,10.0,NE,20.7,25.3,N/A,,Scattered Clouds,50,2013-04-14 17:53:00
1:13 PM,33.8,30.2,87,29.87,10.0,NE,19.6,24.2,N/A,,Mostly Cloudy,50,2013-04-14 18:13:00
1:34 PM,33.8,30.2,87,29.88,10.0,NE,19.6,-,N/A,,Mostly Cloudy,50,2013-04-14 18:34:00
1:53 PM,33.8,30.2,87,29.87,10.0,NE,19.6,26.5,N/A,,Overcast,50,2013-04-14 18:53:00
2:13 PM,33.8,30.2,87,29.86,10.0,NE,20.7,26.5,N/A,,Mostly Cloudy,50,2013-04-14 19:13:00
2:34 PM,33.8,30.2,87,29.85,10.0,NE,21.9,-,N/A,,Scattered Clouds,50,2013-04-14 19:34:00
3:14 PM,33.8,30.2,87,29.82,10.0,NE,23.0,29.9,N/A,,Overcast,50,2013-04-14 20:14:00
3:33 PM,33.8,30.2,87,29.81,10.0,NE,24.2,29.9,N/A,,Overcast,50,2013-04-14 20:33:00
3:53 PM,33.8,28.4,81,29.80,10.0,NE,24.2,31.1,N/A,,Overcast,50,2013-04-14 20:53:00
4:14 PM,33.8,28.4,81,29.79,10.0,NE,26.5,33.4,N/A,,Overcast,50,2013-04-14 21:14:00
4:33 PM,33.8,30.2,87,29.78,5.0,ENE,28.8,34.5,N/A,,Overcast,60,2013-04-14 21:33:00
4:53 PM,33.8,30.2,87,29.78,10.0,ENE,26.5,35.7,N/A,,Overcast,60,2013-04-14 21:53:00
5:14 PM,33.8,30.2,87,29.77,0.8,ENE,27.6,36.8,N/A,,Overcast,60,2013-04-14 22:14:00
5:33 PM,33.8,30.2,87,29.76,0.8,ENE,32.2,40.3,N/A,,Overcast,60,2013-04-14 22:33:00
5:54 PM,33.8,30.2,87,29.75,0.2,ENE,28.8,41.4,N/A,,Overcast,60,2013-04-14 22:54:00
6:13 PM,33.8,30.2,87,29.75,0.2,ENE,33.4,40.3,N/A,,Overcast,70,2013-04-14 23:13:00
6:33 PM,33.8,30.2,87,29.77,1.5,ENE,27.6,34.5,N/A,,Overcast,70,2013-04-14 23:33:00
6:54 PM,33.8,30.2,87,29.75,4.0,ENE,28.8,35.7,N/A,,Overcast,60,2013-04-14 23:54:00
7:13 PM,33.8,30.2,87,29.73,3.0,ENE,28.8,39.1,N/A,,Overcast,60,2013-04-15 00:13:00
7:33 PM,33.8,30.2,87,29.72,1.2,ENE,31.1,36.8,N/A,,Overcast,60,2013-04-15 00:33:00
7:53 PM,33.8,30.2,87,29.72,0.5,NE,28.8,38.0,N/A,,Overcast,50,2013-04-15 00:53:00
8:13 PM,33.8,30.2,87,29.71,1.0,NE,28.8,36.8,N/A,,Overcast,50,2013-04-15 01:13:00
8:34 PM,33.8,30.2,87,29.71,1.2,NE,24.2,33.4,N/A,,Overcast,50,2013-04-15 01:34:00
8:53 PM,33.8,30.2,87,29.70,2.5,ENE,26.5,34.5,N/A,,Overcast,60,2013-04-15 01:53:00
9:14 PM,33.8,30.2,87,29.70,2.0,NE,26.5,34.5,N/A,,Overcast,50,2013-04-15 02:14:00
9:33 PM,33.8,30.2,87,29.69,2.0,NE,26.5,32.2,N/A,,Overcast,50,2013-04-15 02:33:00
9:53 PM,33.8,30.2,87,29.69,1.0,ENE,26.5,34.5,N/A,,Overcast,60,2013-04-15 02:53:00
10:14 PM,33.8,30.2,87,29.68,1.5,ENE,25.3,34.5,N/A,,Overcast,60,2013-04-15 03:14:00
10:33 PM,33.8,30.2,87,29.68,1.8,ENE,27.6,36.8,N/A,,Overcast,60,2013-04-15 03:33:00
10:53 PM,33.8,30.2,87,29.66,1.5,ENE,26.5,34.5,N/A,,Overcast,60,2013-04-15 03:53:00
11:13 PM,33.8,30.2,87,29.67,7.0,ENE,26.5,35.7,N/A,,Overcast,60,2013-04-15 04:13:00
11:34 PM,33.8,30.2,87,29.65,10.0,ENE,27.6,34.5,N/A,,Overcast,60,2013-04-15 04:34:00
11:54 PM,33.8,30.2,87,29.64,7.0,ENE,25.3,35.7,N/A,,Overcast,60,2013-04-15 04:54:00